Change the Weather History Date:

Tuesday, January 3, 2012

  Actual Average Record
Temperature  
Mean Temperature 19 °F -  
Max Temperature 23 °F 37 °F 57 °F (2015)
Min Temperature 15 °F 23 °F 25 °F (2015)
Degree Days  
Heating Degree Days 46    
Moisture  
Dew Point 11 °F    
Average Humidity 71    
Maximum Humidity 84    
Minimum Humidity 59    
Precipitation  
Precipitation 0.00 in - - ()
Sea Level Pressure  
Sea Level Pressure 30.28 in    
Wind  
Wind Speed 11 mph (NW)    
Max Wind Speed 20 mph    
Max Gust Speed 29 mph    
Visibility 9 miles    
Events Snow    
Averages and records for this station are not official NWS values.
T = Trace of Precipitation, MM = Missing Value Source: NWS Daily Summary

Daily Weather History Graph

Daily Weather History Graph

Search for Another Location

Airport or City:

Trip Planner

Search our weather history database for the weather conditions in past years. The results will help you decide how hot, cold, wet, or windy it might be!

Date:

Astronomy

Jan. 03, 2012 Rise Set
Actual Time 7:51 AM EST 5:16 PM EST
Civil Twilight 7:21 AM EST 5:46 PM EST
Nautical Twilight 6:47 AM EST 6:20 PM EST
Astronomical Twilight 6:14 AM EST 6:53 PM EST
Moon 1:03 PM EST (1/3) 2:41 AM EST (1/3)
Length of Visible Light 10h 25m
Length of Day
9h 24m
Waxing Gibbous, 72% of the Moon is Illuminated
Jan 3
Waxing Gibbous
Jan 9
Full
Jan 16
Last Quarter
Jan 23
New
Jan 30
First Quarter

Hourly Weather History & Observations

Time (EST) Temp. Windchill Dew Point Humidity Pressure Visibility Wind Dir Wind Speed Gust Speed Precip Events Conditions
12:54 AM 23.0 °F 12.4 °F 15.1 °F 72% 30.15 in 10.0 mi NW 10.4 mph 20.7 mph N/A   Overcast
1:54 AM 21.9 °F 8.7 °F 12.9 °F 68% 30.17 in 10.0 mi NW 15.0 mph 21.9 mph N/A   Overcast
2:54 AM 19.9 °F 8.6 °F 12.0 °F 71% 30.19 in 10.0 mi NW 10.4 mph 19.6 mph N/A   Clear
3:54 AM 19.0 °F 5.0 °F 10.9 °F 71% 30.20 in 10.0 mi WNW 15.0 mph 23.0 mph N/A   Scattered Clouds
4:54 AM 18.0 °F 6.9 °F 10.0 °F 71% 30.22 in 10.0 mi WNW 9.2 mph - N/A   Clear
5:54 AM 17.1 °F 4.3 °F 9.0 °F 71% 30.24 in 10.0 mi WNW 11.5 mph - N/A   Partly Cloudy
6:54 AM 16.0 °F 3.6 °F 8.1 °F 71% 30.27 in 10.0 mi WNW 10.4 mph - N/A   Clear
7:54 AM 15.1 °F 4.2 °F 7.0 °F 70% 30.28 in 10.0 mi WNW 8.1 mph - N/A   Clear
8:54 AM 16.0 °F 2.9 °F 8.1 °F 71% 30.30 in 10.0 mi WNW 11.5 mph - N/A   Clear
9:54 AM 18.0 °F 3.6 °F 8.1 °F 65% 30.32 in 10.0 mi NW 15.0 mph 20.7 mph N/A   Overcast
10:54 AM 19.0 °F 4.5 °F 7.0 °F 59% 30.32 in 10.0 mi NW 16.1 mph 28.8 mph N/A   Overcast
11:54 AM 19.0 °F 5.0 °F 9.0 °F 65% 30.32 in 8.0 mi NW 15.0 mph 19.6 mph N/A   Overcast
12:49 PM 19.4 °F 3.6 °F 10.4 °F 68% 30.27 in 2.5 mi NW 19.6 mph 24.2 mph 0.00 in Snow Light Snow
12:54 PM 19.9 °F 6.2 °F 12.0 °F 71% 30.31 in 1.2 mi NW 15.0 mph 24.2 mph 0.00 in Snow Light Snow
1:01 PM 19.4 °F 6.6 °F 12.2 °F 74% 30.27 in 3.0 mi NW 12.7 mph - 0.00 in Snow Light Snow
1:54 PM 23.0 °F 9.2 °F 10.9 °F 60% 30.29 in 10.0 mi NNW 17.3 mph 23.0 mph 0.00 in   Overcast
2:54 PM 21.0 °F 8.1 °F 12.0 °F 68% 30.30 in 9.0 mi NW 13.8 mph 19.6 mph N/A   Overcast
3:54 PM 21.0 °F 7.6 °F 10.0 °F 63% 30.31 in 10.0 mi WNW 15.0 mph 21.9 mph N/A   Overcast
4:54 PM 19.9 °F 11.1 °F 10.9 °F 68% 30.32 in 10.0 mi NW 6.9 mph - N/A   Mostly Cloudy
5:54 PM 19.9 °F 10.1 °F 12.0 °F 71% 30.34 in 10.0 mi WNW 8.1 mph - N/A   Overcast
6:47 PM 21.2 °F - 14.0 °F 74% 30.30 in 10.0 mi Calm Calm - 0.00 in   Overcast
6:54 PM 21.0 °F - 14.0 °F 74% 30.34 in 10.0 mi Calm Calm - 0.00 in   Overcast
7:26 PM 19.4 °F - 14.0 °F 80% 30.32 in 10.0 mi Calm Calm - 0.00 in   Overcast
7:54 PM 19.9 °F - 14.0 °F 78% 30.36 in 10.0 mi Calm Calm - 0.00 in   Overcast
9:54 PM 16.0 °F - 10.9 °F 81% 30.30 in 10.0 mi Calm Calm - N/A   Clear
10:54 PM 15.1 °F - 10.9 °F 84% 30.29 in 10.0 mi Calm Calm - N/A   Clear
11:54 PM 15.1 °F - 10.9 °F 84% 30.29 in 9.0 mi Calm Calm - N/A   Clear